Weather History for Oakland, CA

Change the Weather History Date:

Thursday, December 23, 2010

  Actual Average Record
Temperature  
Mean Temperature 49 °F 48 °F  
Max Temperature 57 °F 55 °F 65 °F (2004)
Min Temperature 41 °F 41 °F 29 °F (1948)
Degree Days  
Heating Degree Days 16 17  
Month to date heating degree days 278 364  
Since 1 July heating degree days 776 1039  
Cooling Degree Days 0 0  
Month to date cooling degree days 0 0  
Year to date cooling degree days 256 138  
Moisture  
Dew Point 43 °F    
Average Humidity 70    
Maximum Humidity 96    
Minimum Humidity 43    
Precipitation  
Precipitation 0.00 in 0.13 in 1.42 in (1979)
Month to date precipitation 4.73 2.66  
Year to date precipitation 23.42 19.81  
Since 1 July precipitation 8.33 6.59  
Sea Level Pressure  
Sea Level Pressure 30.17 in    
Wind  
Wind Speed 3 mph (West)    
Max Wind Speed 13 mph    
Max Gust Speed 14 mph    
Visibility 10 miles    
Events      
T = Trace of Precipitation, MM = Missing Value Source: NWS Daily Summary

Daily Weather History Graph

Daily Weather History Graph

Search for Another Location

Airport:

Trip Planner

Search our weather history database for the weather conditions in past years. The results will help you decide how hot, cold, wet, or windy it might be!

Date:

Astronomy

Dec. 23, 2010 Rise Set
Actual Time 7:21 AM PST 4:54 PM PST
Civil Twilight 6:52 AM PST 5:24 PM PST
Nautical Twilight 6:19 AM PST 5:57 PM PST
Astronomical Twilight 5:47 AM PST 6:29 PM PST
Moon 7:53 PM PST 9:11 AM PST
Length of Visible Light 10h 32m
Length of Day
9h 33m
Waning Gibbous, 92% of the Moon is Illuminated
Dec 23
Waning Gibbous
Dec 27
Last Quarter
Jan 4
New
Jan 12
First Quarter
Jan 19
Full

Hourly Weather History & Observations

Time (PST) Temp. Windchill Dew Point Humidity Pressure Visibility Wind Dir Wind Speed Gust Speed Precip Events Conditions
12:53 AM 50.0 °F - 44.1 °F 80% 30.08 in 10.0 mi West 10.4 mph - N/A   Mostly Cloudy
1:03 AM 50.0 °F - 44.6 °F 82% 30.08 in 10.0 mi West 10.4 mph - N/A   Partly Cloudy
1:53 AM 48.9 °F - 44.1 °F 83% 30.11 in 10.0 mi WSW 6.9 mph - N/A   Scattered Clouds
2:39 AM 48.2 °F - 42.8 °F 82% 30.13 in 10.0 mi WNW 5.8 mph - N/A   Mostly Cloudy
2:53 AM 48.0 °F - 44.1 °F 86% 30.14 in 10.0 mi Calm Calm - N/A   Mostly Cloudy
3:28 AM 46.4 °F - 42.8 °F 87% 30.14 in 10.0 mi Calm Calm - N/A   Partly Cloudy
3:53 AM 46.0 °F 43.9 °F 43.0 °F 89% 30.14 in 10.0 mi East 4.6 mph - N/A   Partly Cloudy
4:53 AM 45.0 °F - 42.1 °F 90% 30.16 in 10.0 mi Calm Calm - N/A   Partly Cloudy
5:53 AM 41.0 °F 38.0 °F 39.0 °F 93% 30.17 in 10.0 mi ENE 4.6 mph - N/A   Partly Cloudy
6:53 AM 43.0 °F 40.3 °F 39.9 °F 89% 30.19 in 10.0 mi ESE 4.6 mph - N/A   Mostly Cloudy
7:53 AM 43.0 °F 41.3 °F 41.0 °F 93% 30.21 in 10.0 mi East 3.5 mph - N/A   Mostly Cloudy
8:53 AM 48.0 °F - 45.0 °F 89% 30.22 in 10.0 mi Calm Calm - N/A   Mostly Cloudy
9:53 AM 50.0 °F - 45.0 °F 83% 30.24 in 10.0 mi ESE 5.8 mph - N/A   Scattered Clouds
10:53 AM 51.8 °F - 46.4 °F 82% 30.24 in 10.0 mi South 3.5 mph - N/A   Scattered Clouds
11:53 AM 53.6 °F - 44.6 °F 72% 30.21 in 10.0 mi South 4.6 mph - N/A   Scattered Clouds
12:53 PM 54.0 °F - 43.0 °F 66% 30.20 in 10.0 mi West 4.6 mph - N/A   Scattered Clouds
1:53 PM 57.0 °F - 36.0 °F 45% 30.18 in 10.0 mi Calm Calm - N/A   Scattered Clouds
2:53 PM 55.0 °F - 41.0 °F 59% 30.18 in 10.0 mi WNW 3.5 mph - N/A   Scattered Clouds
3:53 PM 54.0 °F - 43.0 °F 66% 30.18 in 10.0 mi WNW 4.6 mph - N/A   Mostly Cloudy
4:53 PM 53.1 °F - 44.1 °F 71% 30.19 in 10.0 mi Calm Calm - N/A   Mostly Cloudy
5:53 PM 51.8 °F - 44.6 °F 76% 30.18 in 10.0 mi NW 3.5 mph - N/A   Mostly Cloudy
6:53 PM 51.1 °F - 43.0 °F 74% 30.19 in 10.0 mi Calm Calm - N/A   Mostly Cloudy
7:53 PM 48.9 °F - 43.0 °F 80% 30.19 in 10.0 mi Calm Calm - N/A   Mostly Cloudy
8:53 PM 46.4 °F - 41.0 °F 81% 30.19 in 10.0 mi Calm Calm - N/A   Mostly Cloudy
9:53 PM 46.9 °F - 41.0 °F 80% 30.19 in 10.0 mi Calm Calm - N/A   Mostly Cloudy
10:53 PM 45.0 °F 43.5 °F 39.9 °F 82% 30.19 in 10.0 mi ENE 3.5 mph - N/A   Mostly Cloudy
11:53 PM 45.0 °F 42.6 °F 41.0 °F 86% 30.18 in 10.0 mi East 4.6 mph - N/A   Partly Cloudy